Dewpoint
57 57 58 58 58 59 59 59 59 59 59 59 59 60 60 60 60 60 60 60 60 60 60 60 61 61 60 59 60 59 53 31 26 24 24 28 44 54 55 58 59 59 58 47 33 29 27 21 18 18 14 4 18 18 24 20 30 32 23 23 19 19 19 20 19 19 20 18 19 24 27 28 28 30 27 29 25 25 25 23 22 21 21 20 20 21 20 21
57 58 58 58 59 59 59 59 59 59 59 59 59 59 60 60 60 60 60 59 60 59 60 59 60 60 60 59 60 59 42 28 23 23 24 37 55 58 58 58 59 58 54 35 34 32 23 18 22 17 4 8 19 17 23 24 24 24 26 25 17 21 19 20 19 20 18 18 21 26 28 26 26 29 30 26 27 25 24 25 25 21 21 20 21 22 20 19
57 58 58 57 59 58 58 58 59 59 59 59 59 60 60 60 60 61 60 61 60 60 60 59 60 59 59 60 58 57 40 29 21 21 23 50 55 56 56 57 57 59 37 33 39 36 32 29 25 20 17 12 13 20 27 23 28 27 25 18 18 22 18 19 20 20 22 20 25 27 28 27 28 29 30 27 26 27 23 22 22 20 19 20 22 24 23 20
57 58 58 58 58 58 58 58 59 59 59 59 60 60 60 60 60 60 61 60 59 60 60 59 59 59 59 59 59 47 34 25 19 22 25 50 54 56 55 56 57 55 45 41 41 40 37 31 24 20 25 16 22 25 21 23 23 26 20 19 18 20 17 19 21 21 23 23 21 26 28 26 28 30 28 26 24 25 26 27 24 21 19 20 22 24 25 21
57 58 58 58 58 58 58 59 59 59 59 59 59 59 60 60 60 61 61 60 60 60 60 59 59 59 58 59 57 45 32 18 18 24 26 51 54 55 54 56 56 49 41 37 42 41 38 33 21 31 28 19 32 26 21 21 24 26 15 18 15 16 17 19 22 23 23 25 26 26 25 25 29 28 27 27 26 24 24 27 26 22 20 21 20 23 24 22
57 58 58 57 58 58 58 58 59 59 59 58 59 59 60 60 60 60 60 59 60 60 60 60 59 57 58 58 41 36 27 12 24 23 46 50 52 54 53 54 52 46 42 33 27 25 22 21 20 27 26 23 20 22 21 22 28 17 17 14 14 14 15 17 22 23 22 24 25 25 27 29 28 27 29 30 29 28 29 28 26 25 24 23 24 23 23 23
57 57 57 58 57 57 58 58 59 59 58 58 59 59 59 60 60 60 60 61 60 60 59 59 58 58 57 56 42 25 21 21 24 24 44 51 51 49 50 48 46 33 29 26 26 24 24 20 24 29 32 27 25 24 28 29 29 23 16 15 14 17 14 18 21 23 22 24 24 25 29 27 26 24 27 27 28 28 29 28 27 28 28 27 24 25 24 23
57 57 57 57 57 57 58 58 59 59 58 58 59 59 60 60 60 60 60 60 61 59 59 59 59 58 54 43 34 25 23 22 22 26 43 48 36 34 39 35 31 31 27 27 27 25 28 24 20 32 28 26 24 25 30 25 30 23 17 18 14 17 17 20 20 22 21 24 26 26 24 25 26 24 25 24 25 26 26 27 27 27 25 25 25 25 25 23
57 57 57 57 57 57 58 58 58 58 58 58 59 59 60 60 60 60 60 59 60 60 60 59 58 57 52 40 27 18 18 21 23 23 28 25 28 28 29 26 27 26 27 28 29 27 24 26 29 26 21 25 29 27 28 24 23 28 22 23 16 12 16 19 20 21 20 23 24 23 24 25 25 25 24 24 24 24 24 23 23 22 20 20 22 23 23 22
57 57 57 57 57 57 58 58 58 57 57 58 58 59 60 60 59 58 58 59 59 60 59 58 57 52 40 30 26 15 20 23 23 25 24 26 27 28 28 28 25 24 26 25 27 29 27 26 27 28 25 22 28 23 29 28 24 30 30 26 13 11 14 15 19 19 20 22 22 21 22 23 25 22 21 24 23 23 20 20 20 19 18 19 22 24 24 22
57 57 57 57 57 58 58 58 58 58 57 58 58 59 60 60 58 59 58 59 60 60 58 58 59 34 24 21 19 17 21 21 24 25 24 26 26 26 27 28 26 22 23 22 23 29 30 29 29 31 28 15 22 22 25 25 29 30 30 26 23 28 20 15 16 16 17 11 19 22 22 23 24 22 20 23 23 21 19 19 18 17 17 19 20 20 22 20
57 57 57 57 57 57 57 58 58 58 58 58 59 59 59 58 58 58 57 58 60 59 58 58 57 22 21 18 18 18 20 21 25 26 21 26 24 26 29 28 25 22 21 21 20 23 31 34 34 28 16 25 14 25 24 30 31 28 27 20 24 27 22 19 14 15 18 10 20 20 20 20 22 20 22 23 22 21 18 18 17 16 17 17 17 18 19 18
57 57 56 56 57 58 58 57 57 58 58 59 59 59 58 58 58 58 58 56 57 59 58 58 53 41 32 18 18 20 21 22 26 19 18 25 23 26 27 23 22 23 21 19 19 24 36 32 27 27 33 23 21 12 21 32 30 29 29 22 17 20 22 20 19 12 15 12 21 23 14 18 19 20 21 23 21 20 18 17 16 16 15 15 16 16 17 20
56 56 55 55 57 57 57 57 58 58 58 59 58 57 57 57 57 57 57 57 57 58 57 57 45 29 27 16 19 22 23 26 16 16 17 25 23 22 20 21 23 21 23 20 24 27 32 35 30 31 37 27 25 32 34 32 27 16 24 22 11 13 5 12 18 13 15 18 21 22 13 13 17 19 21 22 21 18 16 16 15 15 14 15 16 16 16 17
56 56 55 56 57 57 57 57 57 58 57 57 57 56 55 53 55 57 58 52 53 55 56 55 37 37 24 18 19 21 44 16 15 16 19 18 22 19 19 22 22 21 22 20 21 24 29 29 25 24 24 33 34 30 24 24 21 23 19 11 16 8 11 15 18 14 12 13 21 21 17 17 17 18 20 20 19 17 16 15 15 14 14 15 15 15 13 13
55 55 55 56 57 56 56 56 56 56 57 57 57 57 55 53 54 57 57 51 54 55 49 34 34 23 19 15 10 32 16 14 14 17 17 18 21 23 23 23 22 19 20 20 23 25 31 24 21 23 26 28 26 20 17 15 15 19 9 3 7 11 12 13 22 28 25 19 21 20 13 14 11 18 19 19 18 16 16 15 14 14 15 15 15 14 13 14
55 55 56 57 57 55 56 56 56 56 56 57 57 55 56 55 53 54 55 52 50 46 26 27 31 35 15 18 14 13 14 16 18 16 15 19 25 22 21 22 19 21 22 19 20 23 22 18 26 17 26 23 24 20 6 14 8 11 19 13 15 12 15 16 14 16 24 21 15 18 16 15 13 20 19 19 18 17 16 15 15 15 15 15 15 14 14 13
55 56 56 57 57 56 56 56 56 55 56 56 55 55 49 55 53 46 43 42 45 40 38 37 35 23 16 12 13 14 16 16 17 16 17 20 23 21 21 22 22 21 26 21 17 15 21 17 21 7 15 19 21 11 15 -8 3 6 14 15 18 19 19 18 11 12 17 22 19 19 15 14 14 17 20 19 19 17 16 16 15 15 14 15 14 14 14 15
56 56 57 57 56 56 55 55 55 55 56 56 56 56 55 52 46 30 34 31 30 23 19 21 21 11 7 11 11 16 18 18 19 17 20 21 22 23 25 25 27 23 24 16 16 19 22 19 18 14 11 16 19 19 9 8 15 17 19 18 17 17 19 15 15 16 20 20 20 15 11 11 11 19 20 20 19 17 17 16 15 15 14 14 14 14 14 15
56 56 56 56 55 55 55 55 55 55 56 50 50 46 44 30 27 23 28 32 25 23 24 25 29 24 21 16 17 19 20 17 16 20 23 24 22 22 24 28 27 23 29 22 24 21 25 16 13 9 15 18 18 22 21 20 22 23 23 21 23 22 21 16 15 17 23 15 11 10 12 12 10 15 19 20 19 18 16 15 15 15 14 14 14 14 14 14
56 56 56 55 54 55 55 55 55 56 55 49 45 43 36 28 22 15 23 30 33 32 24 23 26 21 18 17 19 19 12 12 16 19 23 25 24 21 22 28 23 16 17 26 17 23 19 10 9 17 20 18 16 19 24 18 24 25 22 21 22 19 14 11 8 12 22 11 9 7 9 10 11 13 18 20 18 17 16 15 14 14 15 15 15 16 15 15
56 56 56 54 55 54 55 54 55 56 54 44 41 39 39 40 36 28 26 18 28 33 30 28 26 19 19 21 19 20 16 13 12 17 23 24 24 20 26 23 19 8 20 25 19 13 11 8 14 16 20 21 27 24 20 14 18 21 19 15 9 12 13 12 12 17 18 14 8 9 10 11 13 14 18 19 18 18 16 15 14 14 14 14 15 16 15 10
56 56 55 56 55 55 54 55 55 53 45 42 39 40 38 42 46 45 31 27 24 29 27 26 19 20 18 19 19 22 16 16 17 18 20 24 28 25 29 25 24 25 19 18 11 13 7 8 15 19 25 24 24 23 19 16 19 12 9 6 8 14 6 6 12 12 17 13 11 10 12 14 17 18 18 18 16 16 17 17 17 16 15 15 16 14 12 12
56 56 56 55 55 54 55 54 53 47 42 43 44 42 44 46 46 45 30 18 16 22 26 26 21 20 20 18 21 21 20 21 21 17 22 24 25 26 29 27 23 25 20 19 13 7 5 11 11 25 25 24 22 22 17 12 5 14 14 8 8 8 8 6 8 14 16 18 19 16 12 11 17 17 17 17 19 17 19 17 18 18 20 19 15 13 7 3
55 55 54 55 54 54 54 51 43 41 45 43 44 44 44 45 46 44 26 24 21 16 31 29 28 19 19 19 29 24 25 22 21 20 22 24 25 30 26 28 22 16 23 23 21 22 22 24 25 22 18 20 13 10 17 14 9 12 15 10 9 12 13 14 15 14 8 8 18 12 7 9 12 16 17 17 17 17 17 17 17 18 16 12 6 8 13 15
55 54 55 55 54 53 53 35 30 45 42 35 43 45 45 45 46 45 28 19 1 15 23 16 27 14 19 20 26 34 23 18 19 18 29 26 29 28 27 21 23 15 20 21 14 14 20 24 22 18 14 16 17 15 19 13 9 3 9 17 15 13 14 15 14 12 7 -2 7 17 7 5 12 8 16 17 16 16 17 17 17 17 16 11 8 3 3 1
54 54 54 54 54 53 30 30 32 43 26 42 46 45 43 45 45 40 21 14 6 10 13 22 18 15 28 25 25 23 7 9 15 22 27 30 25 32 16 16 20 25 26 25 18 8 21 17 18 20 16 13 7 2 7 13 10 8 14 17 16 17 15 15 15 13 11 17 17 18 14 9 4 6 17 17 16 16 16 17 17 16 13 9 6 8 6 5
53 54 54 55 54 50 27 44 42 31 28 44 45 44 45 46 46 35 23 -4 -14 22 14 21 20 26 24 27 21 13 10 17 15 14 30 33 24 24 24 19 15 18 23 15 -5 14 13 12 18 17 14 9 3 -7 4 17 9 12 15 19 18 18 18 18 16 13 10 10 11 13 14 -3 -1 8 17 17 16 16 16 16 17 16 13 10 10 8 6 6
51 52 54 55 54 52 48 46 42 36 43 43 44 45 47 44 37 26 17 -9 1 21 24 22 27 16 26 28 22 25 25 26 16 20 29 25 20 21 15 19 24 24 25 16 2 8 19 23 20 18 7 -1 8 5 10 20 14 18 21 22 21 21 18 13 7 3 8 9 4 4 9 -5 1 8 15 16 16 16 16 17 17 16 11 10 9 6 6 6
51 50 54 53 51 47 44 43 42 43 44 44 45 45 44 37 29 21 -8 -20 23 2 26 24 17 13 26 19 19 21 18 19 26 25 28 17 15 25 26 29 24 20 14 22 17 15 19 30 28 13 8 5 10 14 16 19 18 22 21 9 8 5 3 9 14 10 4 2 9 8 4 -2 -2 1 7 15 17 16 17 18 20 19 8 7 10 5 6 6
52 49 51 50 40 45 44 40 41 43 43 45 45 42 39 27 18 8 -15 -11 23 22 21 17 15 26 23 17 9 18 23 23 18 25 21 25 16 21 22 20 22 20 19 15 15 18 17 24 18 23 25 23 18 14 19 22 22 20 12 5 -1 -5 -0 12 9 7 -11 -6 1 7 4 3 -4 0 3 17 15 15 17 12 3 7 6 8 6 7 6 9
52 51 48 46 45 45 37 40 46 44 45 44 43 36 34 18 16 4 1 22 9 15 11 12 20 23 22 22 15 16 16 20 20 22 21 21 18 17 19 10 14 3 8 8 5 16 14 17 21 21 27 17 17 5 6 15 16 10 5 1 -4 -5 -3 -5 -0 -7 -10 -8 -0 3 2 -3 -2 4 11 15 16 15 14 9 4 2 3 4 5 5 10 8
51 52 50 43 44 38 41 45 43 44 44 43 36 28 19 11 -13 -2 4 12 4 17 11 20 20 23 22 15 14 18 21 16 20 16 23 20 22 20 21 19 19 -0 -0 10 11 7 7 16 15 17 17 20 12 2 -1 -2 4 8 -0 1 -2 -7 -13 -12 -9 -9 -5 -4 1 -1 1 -2 0 5 11 15 17 19 12 7 4 3 1 1 5 6 8 6
51 49 38 41 39 39 41 44 43 45 43 40 34 27 17 5 -17 25 1 12 11 23 25 23 23 22 17 9 13 18 11 13 18 15 20 13 19 14 18 20 20 17 12 14 3 4 -1 2 9 14 7 15 9 2 0 2 2 8 8 -2 -5 -5 -13 -9 -12 -10 -5 -4 -3 1 -4 -4 -2 3 16 17 19 19 16 5 5 4 2 3 5 4 4 5
51 45 41 41 39 41 42 43 42 43 37 27 20 18 3 -14 -2 2 8 17 19 21 20 22 19 16 12 19 17 17 8 9 18 16 18 15 10 15 16 17 21 20 17 5 6 2 5 3 8 17 11 13 12 17 18 17 7 18 7 12 3 -4 6 -6 -3 -7 -4 -1 -1 -1 -1 5 1 13 16 10 5 6 11 4 9 3 6 5 7 8 6 5
48 43 42 38 37 36 42 44 43 42 29 20 18 14 6 1 1 16 15 22 22 16 18 20 17 14 11 14 18 9 16 9 17 11 10 16 15 15 19 19 19 20 8 -1 3 0 8 -1 10 18 19 10 7 22 19 10 -3 6 7 1 0 8 3 -4 4 3 3 -1 2 -2 6 3 7 14 13 8 7 5 7 8 6 4 5 6 6 5 4 5
42 39 29 34 36 39 41 41 42 31 26 20 18 4 9 14 20 22 32 19 20 21 18 9 7 5 2 4 9 12 11 17 14 6 2 13 8 19 19 20 22 21 15 12 10 5 0 5 13 12 10 16 16 21 21 21 12 9 1 5 15 13 11 3 -3 -3 -3 -3 -4 -2 -1 1 -1 -0 13 7 7 8 8 7 3 3 4 4 5 4 5 4
42 37 34 31 35 42 41 41 36 27 26 22 21 26 22 16 24 26 26 22 22 20 13 13 9 8 2 6 9 6 14 7 9 9 6 13 5 21 19 18 22 21 23 20 6 10 11 8 9 13 11 16 21 17 13 17 17 8 8 12 6 -1 -0 5 -4 -3 -4 -4 -4 -2 1 3 3 6 10 6 7 6 6 5 2 3 3 3 4 5 5 4
38 30 18 24 37 42 42 37 30 24 18 21 18 21 20 22 25 26 26 24 23 19 10 9 4 8 6 7 8 12 11 8 9 8 2 7 6 18 16 20 21 23 24 21 17 20 15 2 8 15 8 11 8 13 3 9 16 17 16 9 12 6 1 -3 1 -1 2 -1 -2 -2 1 1 7 10 5 4 5 5 3 2 2 3 4 4 4 5 5 5
33 22 11 20 38 43 42 33 27 23 21 17 15 14 23 21 26 27 28 25 17 12 8 8 15 8 13 8 9 7 13 11 12 10 9 12 11 17 21 23 16 20 24 24 18 21 14 7 1 9 16 14 5 9 1 4 1 7 7 4 5 1 11 7 1 1 1 -2 -3 -1 -2 -0 6 3 3 3 3 3 2 2 3 3 3 4 4 5 5 5
34 26 20 30 36 41 28 25 22 22 22 21 23 24 23 15 24 26 28 29 27 24 14 11 14 10 11 14 12 17 14 15 15 9 10 8 8 8 22 21 24 21 22 21 19 17 8 9 7 7 8 7 5 6 4 5 7 6 9 8 8 -1 3 1 0 4 1 -0 -1 -2 -1 2 6 2 3 3 3 2 3 3 3 4 4 5 5 6 6 6
25 9 17 29 35 35 27 19 20 23 23 18 19 24 22 34 20 21 25 25 23 20 23 18 18 21 18 17 15 18 15 11 15 9 13 5 14 10 17 22 25 24 20 13 14 19 12 10 9 11 10 7 6 6 13 12 10 9 7 8 9 5 5 2 1 1 2 3 2 5 3 5 8 3 3 4 5 4 4 5 5 5 5 5 6 7 7 6
23 13 22 32 36 27 16 15 23 24 17 22 25 22 25 23 17 18 21 23 18 21 21 19 17 15 15 15 18 18 17 8 15 7 12 14 18 20 23 22 25 26 21 20 13 21 24 8 2 6 10 13 14 12 13 14 13 9 9 11 8 4 6 7 5 4 4 1 4 5 3 4 3 7 4 5 8 8 7 7 7 7 6 6 6 7 7 6
26 15 20 29 34 31 19 8 11 14 20 23 22 23 27 26 25 24 24 25 18 13 18 19 17 18 15 22 21 14 17 2 11 10 10 12 10 26 24 25 26 23 20 17 3 16 2 7 2 3 3 4 1 6 7 9 8 9 6 8 10 9 8 9 6 5 4 7 7 5 1 3 7 8 7 7 9 8 8 7 7 6 6 6 7 7 7 6
24 25 30 28 27 25 12 21 18 19 22 19 17 17 18 15 25 25 24 18 23 16 16 16 16 19 19 22 19 22 22 9 6 12 7 9 10 26 24 25 24 24 27 28 30 24 5 7 3 -2 -1 -1 -1 -1 1 4 7 5 2 8 7 5 6 6 3 2 2 4 7 3 4 4 5 7 7 8 9 8 8 8 8 7 7 7 7 7 6 5
23 4 14 14 21 26 26 25 23 21 17 12 9 11 18 12 20 25 23 24 22 23 20 21 22 17 19 16 16 20 20 19 9 9 9 10 13 18 25 23 25 26 30 29 25 17 3 11 8 5 3 4 6 7 4 10 5 7 7 7 8 5 8 7 6 5 5 6 4 5 7 5 4 7 6 9 8 8 8 8 8 7 7 6 6 6 6 6
25 17 15 2 22 18 20 23 24 22 13 20 7 8 5 19 16 21 27 10 25 25 25 20 21 13 14 12 11 20 21 16 17 10 9 8 11 13 22 24 26 26 29 26 25 10 1 4 10 11 10 10 7 6 6 9 6 4 5 7 8 7 5 5 4 3 6 6 3 5 4 6 7 6 7 7 7 8 8 8 8 6 6 6 6 6 11 5
20 16 21 20 16 2 19 9 23 20 21 21 12 20 13 19 20 10 22 20 24 22 18 18 23 21 19 14 16 6 16 16 14 6 8 7 11 15 14 24 23 29 26 21 18 6 3 4 5 2 3 6 6 6 7 6 5 5 6 7 7 6 2 -0 2 7 7 4 4 4 6 8 6 5 7 7 8 8 8 8 7 7 6 6 7 6 5 4
25 22 23 24 11 12 19 15 25 23 23 22 23 18 15 18 14 21 21 22 21 18 16 5 14 23 22 22 16 10 17 7 10 7 9 8 10 13 10 12 22 23 20 16 16 6 4 3 3 2 7 7 7 6 5 5 5 6 6 3 1 1 3 4 4 6 7 7 7 8 6 3 4 6 6 8 9 9 8 8 8 7 7 7 7 6 5 7
14 13 9 21 21 17 18 19 24 21 17 21 13 13 19 21 15 21 25 17 10 18 23 18 17 21 23 24 21 12 13 13 11 9 11 10 13 11 10 12 12 16 18 16 14 13 6 7 10 3 4 7 7 7 6 6 5 2 1 2 1 2 5 7 7 9 9 5 4 3 3 4 6 7 8 9 9 9 9 8 8 7 7 7 7 6 8 8
21 24 20 13 16 11 19 17 20 20 13 16 14 13 23 22 20 23 18 23 15 12 22 11 19 24 23 24 23 20 22 20 19 19 18 15 11 17 10 12 18 16 14 12 9 5 4 7 3 -1 5 6 5 1 2 3 2 3 2 2 2 2 2 6 1 6 4 4 3 4 5 5 6 9 10 10 10 9 8 9 8 7 7 7 9 9 9 8
27 26 25 20 12 14 11 18 21 19 8 12 20 20 20 22 23 23 16 23 25 26 23 21 22 22 20 17 16 20 23 24 24 24 23 23 21 22 21 19 21 17 13 13 10 5 3 2 6 1 6 5 4 4 2 1 4 1 2 3 5 3 2 -1 -1 -0 0 0 4 4 4 6 8 11 10 10 9 8 8 8 8 8 8 10 9 6 9 7